This is the latest recevied weather packets stored in our database for station/object HS3UAA-1. If no packets are shown the sender has not sent any weather packets the latest 10 day(s).
| Time | Temp. | Humidity | Pressure | Rain* | Wind** | Luminosity | Snow |
|---|---|---|---|---|---|---|---|
| 1777984008 | 34.44° C | 41% | 996 hPa | - | - | 0 W/m² | - |
| 1777983686 | 35° C | 41% | 995 hPa | - | - | 0 W/m² | - |
| 1777983364 | 35° C | 40% | 995 hPa | - | - | 0 W/m² | - |
| 1777983042 | 35° C | 40% | 995 hPa | - | - | 0 W/m² | - |
| 1777982720 | 34.44° C | 41% | 995 hPa | - | - | 0 W/m² | - |
| 1777982398 | 34.44° C | 41% | 995 hPa | - | - | 0 W/m² | - |
| 1777982076 | 33.89° C | 41% | 995 hPa | - | - | 0 W/m² | - |
| 1777981754 | 33.33° C | 41% | 995 hPa | - | - | 0 W/m² | - |
| 1777981432 | 33.33° C | 42% | 995 hPa | - | - | 0 W/m² | - |
| 1777981110 | 32.78° C | 42% | 994 hPa | - | - | 0 W/m² | - |
| 1777980788 | 32.78° C | 43% | 994 hPa | - | - | 0 W/m² | - |
| 1777980250 | 32.22° C | 43% | 994 hPa | - | - | 0 W/m² | - |
| 1777979928 | 32.22° C | 43% | 994 hPa | - | - | 0 W/m² | - |
| 1777979606 | 31.67° C | 42% | 994 hPa | - | - | 0 W/m² | - |
| 1777979284 | 31.67° C | 42% | 994 hPa | - | - | 0 W/m² | - |
| 1777978962 | 31.11° C | 42% | 994 hPa | - | - | 0 W/m² | - |
| 1777978640 | 30.56° C | 42% | 994 hPa | - | - | 0 W/m² | - |
| 1777978318 | 29.44° C | 44% | 994 hPa | - | - | 0 W/m² | - |
| 1777977996 | 28.33° C | 47% | 994 hPa | - | - | 0 W/m² | - |
| 1777977674 | 28.89° C | 48% | 994 hPa | - | - | 0 W/m² | - |
| 1777977352 | 28.89° C | 45% | 994 hPa | - | - | 0 W/m² | - |
| 1777977030 | 28.89° C | 45% | 994 hPa | - | - | 0 W/m² | - |
| 1777976708 | 28.33° C | 48% | 994 hPa | - | - | 0 W/m² | - |
| 1777976385 | 28.89° C | 46% | 994 hPa | - | - | 0 W/m² | - |
| 1777976063 | 28.33° C | 44% | 994 hPa | - | - | 0 W/m² | - |
* Rain since midnight (hover to see other rain measurements)
** Current wind speed in m/s (hover to see current wind gust speed)